Location: Newark
(34.6283°N, 36.0776°E)
Time: 22:29:14
(UTC+00:00)

A-11 Canister half - Pass Details

Date: 23 September 2019
Orbit: 1527 x 1682 km, 47.3° (Epoch: 15 October)

Event Time Altitude Azimuth Distance (km) Brightness Sun altitude
Rises 05:27:22 0° 301° (WNW) 4,755 11.0 24.1°
Reaches altitude 10° 05:30:35 10° 307° (NW) 3,790 10.6 24.8°
Maximum altitude 05:39:56 51° 21° (NNE) 1,975 10.0 26.6°
Drops below altitude 10° 05:49:33 10° 96° (E) 3,901 12.6 28.4°
Sets 05:52:54 0° 101° (E) 4,902 12.8 29.1°
